Skip to main content.
^^
Station Historical Data
 
Daily Summary for October 17, 2017 Units:  Metric    English   Both
« Previous Day
Next Day »
Daily Weekly Monthly Yearly Custom
  Current: High: Low: Average:
Temperature: 13.1 °C 13.6 °C 8.8 °C 11.3 °C
Dew Point: 9.3 °C 9.6 °C 6.9 °C 8.4 °C
Humidity: 78% 89% 75% 82%
Wind Speed: 1.6km/h 8.0km/h 0.0km/h 3km/h
Wind Gust: 3.2km/h 20.9km/h - -
WindSSW - - SSW
Pressure: 1019.5 hPa 1020.9 hPa 1018.5 hPa -
Precipitation: 0.0 mm      
Historical Graphs
 
 
Tabular Data for October 17, 2017
Time Temperature Dew Point Pressure Wind Wind Speed Wind Gust Humidity Rainfall Rate (Hourly) Conditions
00:00 12.4 °C 8.7 °C 1018.5 hPa South 4.8 km/h 11.3 km/h 78% 0.0 mm FEW
00:10 12.4 °C 8.7 °C 1018.8 hPa SSW 8.0 km/h 20.9 km/h 78% 0.0 mm FEW
00:20 12.3 °C 8.8 °C 1018.8 hPa South 8.0 km/h 19.3 km/h 79% 0.0 mm FEW
00:30 12.3 °C 8.7 °C 1018.8 hPa South 4.8 km/h 16.1 km/h 79% 0.0 mm FEW
00:40 12.2 °C 8.7 °C 1018.8 hPa South 4.8 km/h 14.5 km/h 79% 0.0 mm FEW
00:50 12.2 °C 8.9 °C 1018.8 hPa South 4.8 km/h 11.3 km/h 80% 0.0 mm FEW
01:10 12.2 °C 8.9 °C 1018.8 hPa SSW 4.8 km/h 11.3 km/h 80% 0.0 mm FEW
01:20 12.1 °C 8.9 °C 1018.8 hPa South 8.0 km/h 16.1 km/h 81% 0.0 mm FEW
01:30 12.1 °C 8.9 °C 1018.8 hPa SSW 3.2 km/h 12.9 km/h 81% 0.0 mm FEW
01:40 12.2 °C 9.0 °C 1018.8 hPa SSW 4.8 km/h 12.9 km/h 81% 0.0 mm FEW
01:50 12.2 °C 9.0 °C 1018.8 hPa SSW 3.2 km/h 16.1 km/h 81% 0.0 mm FEW
02:00 12.1 °C 9.1 °C 1019.2 hPa SSW 3.2 km/h 11.3 km/h 82% 0.0 mm FEW
02:10 12.0 °C 9.0 °C 1018.8 hPa SSW 4.8 km/h 16.1 km/h 82% 0.0 mm FEW
02:20 11.9 °C 8.9 °C 1019.2 hPa South 4.8 km/h 14.5 km/h 82% 0.0 mm FEW
02:30 11.8 °C 8.8 °C 1019.2 hPa SSW 4.8 km/h 9.7 km/h 82% 0.0 mm FEW
02:40 11.8 °C 8.8 °C 1019.2 hPa SSW 4.8 km/h 11.3 km/h 82% 0.0 mm FEW
02:50 11.7 °C 8.7 °C 1019.2 hPa SSW 8.0 km/h 11.3 km/h 82% 0.0 mm FEW
03:00 11.7 °C 8.6 °C 1019.2 hPa SSW 4.8 km/h 9.7 km/h 81% 0.0 mm FEW
03:10 11.7 °C 8.5 °C 1019.2 hPa SSW 4.8 km/h 12.9 km/h 81% 0.0 mm FEW
03:20 11.6 °C 8.4 °C 1019.2 hPa SSW 4.8 km/h 12.9 km/h 81% 0.0 mm FEW
03:30 11.4 °C 8.1 °C 1019.2 hPa South 4.8 km/h 12.9 km/h 80% 0.0 mm FEW
03:40 11.3 °C 8.0 °C 1018.8 hPa SSW 3.2 km/h 9.7 km/h 80% 0.0 mm FEW
03:50 11.3 °C 8.1 °C 1018.8 hPa SSW 3.2 km/h 9.7 km/h 81% 0.0 mm FEW
04:00 11.2 °C 8.0 °C 1018.8 hPa SSW 4.8 km/h 9.7 km/h 81% 0.0 mm FEW
04:10 11.0 °C 8.1 °C 1018.8 hPa SSW 3.2 km/h 8.0 km/h 82% 0.0 mm FEW
04:20 10.9 °C 8.1 °C 1018.8 hPa South 3.2 km/h 8.0 km/h 83% 0.0 mm FEW
04:30 10.7 °C 8.1 °C 1018.8 hPa South 3.2 km/h 9.7 km/h 84% 0.0 mm FEW
04:40 10.6 °C 8.1 °C 1019.2 hPa South 3.2 km/h 11.3 km/h 85% 0.0 mm FEW
04:50 10.4 °C 8.1 °C 1019.2 hPa South 3.2 km/h 8.0 km/h 85% 0.0 mm FEW
05:00 10.4 °C 8.1 °C 1019.2 hPa South 3.2 km/h 8.0 km/h 85% 0.0 mm FEW
05:10 10.4 °C 7.8 °C 1019.2 hPa South 3.2 km/h 8.0 km/h 84% 0.0 mm FEW
05:20 10.4 °C 7.8 °C 1019.2 hPa SSW 1.6 km/h 4.8 km/h 84% 0.0 mm FEW
05:30 10.3 °C 7.9 °C 1019.2 hPa South 3.2 km/h 9.7 km/h 85% 0.0 mm FEW
05:40 10.1 °C 7.7 °C 1019.2 hPa South 1.6 km/h 4.8 km/h 85% 0.0 mm FEW
05:50 10.0 °C 7.8 °C 1019.2 hPa South 3.2 km/h 8.0 km/h 86% 0.0 mm FEW
06:00 9.8 °C 7.6 °C 1019.2 hPa South 3.2 km/h 4.8 km/h 86% 0.0 mm FEW
06:10 9.8 °C 7.6 °C 1019.2 hPa South 3.2 km/h 9.7 km/h 86% 0.0 mm FEW
06:20 9.7 °C 7.4 °C 1019.5 hPa South 3.2 km/h 4.8 km/h 86% 0.0 mm FEW
06:30 9.6 °C 7.5 °C 1019.5 hPa South 3.2 km/h 4.8 km/h 87% 0.0 mm FEW
06:40 9.5 °C 7.4 °C 1019.5 hPa South 3.2 km/h 8.0 km/h 87% 0.0 mm FEW
06:50 9.6 °C 7.6 °C 1019.5 hPa SSW 3.2 km/h 4.8 km/h 87% 0.0 mm FEW
07:00 9.7 °C 7.4 °C 1019.5 hPa SSW 3.2 km/h 4.8 km/h 86% 0.0 mm FEW
07:10 9.6 °C 7.4 °C 1019.9 hPa South 3.2 km/h 4.8 km/h 86% 0.0 mm CLR
07:20 9.6 °C 7.3 °C 1019.9 hPa South 1.6 km/h 8.0 km/h 86% 0.0 mm CLR
07:30 9.4 °C 7.2 °C 1020.2 hPa South 3.2 km/h 4.8 km/h 86% 0.0 mm CLR
07:40 9.3 °C 7.2 °C 1020.2 hPa South 1.6 km/h 4.8 km/h 87% 0.0 mm CLR
07:50 9.1 °C 7.1 °C 1020.5 hPa South 1.6 km/h 1.6 km/h 87% 0.0 mm CLR
08:00 9.0 °C 7.1 °C 1020.5 hPa Calm   3.2 km/h 88% 0.0 mm CLR
08:10 8.8 °C 6.9 °C 1020.2 hPa South 1.6 km/h 3.2 km/h 88% 0.0 mm CLR
08:20 8.8 °C 7.1 °C 1020.5 hPa Calm   3.2 km/h 89% 0.0 mm CLR
08:30 8.9 °C 7.2 °C 1020.5 hPa Calm   3.2 km/h 89% 0.0 mm CLR
08:40 9.1 °C 7.3 °C 1020.5 hPa West 1.6 km/h 3.2 km/h 89% 0.0 mm CLR
08:50 9.3 °C 7.6 °C 1020.5 hPa SW 1.6 km/h 3.2 km/h 89% 0.0 mm CLR
09:00 9.7 °C 7.8 °C 1020.5 hPa SSW 1.6 km/h 3.2 km/h 88% 0.0 mm CLR
09:10 9.9 °C 7.9 °C 1020.5 hPa SSW 1.6 km/h 3.2 km/h 87% 0.0 mm CLR
09:20 10.1 °C 7.9 °C 1020.9 hPa SW 1.6 km/h 3.2 km/h 86% 0.0 mm CLR
09:30 10.2 °C 7.9 °C 1020.9 hPa SW 1.6 km/h 4.8 km/h 86% 0.0 mm CLR
09:40 10.4 °C 8.1 °C 1020.5 hPa SSW 1.6 km/h 3.2 km/h 86% 0.0 mm CLR
09:50 10.7 °C 8.2 °C 1020.5 hPa SSW 1.6 km/h 3.2 km/h 85% 0.0 mm CLR
10:00 10.9 °C 8.3 °C 1020.5 hPa SSW 1.6 km/h 9.7 km/h 84% 0.0 mm CLR
10:10 11.3 °C 8.6 °C 1020.5 hPa SW 1.6 km/h 4.8 km/h 83% 0.0 mm CLR
10:20 11.7 °C 8.9 °C 1020.9 hPa SSW 3.2 km/h 4.8 km/h 83% 0.0 mm CLR
10:30 12.0 °C 9.0 °C 1020.9 hPa SSW 1.6 km/h 4.8 km/h 82% 0.0 mm CLR
10:40 12.3 °C 9.0 °C 1020.9 hPa SSW 1.6 km/h 4.8 km/h 80% 0.0 mm CLR
10:50 12.7 °C 9.3 °C 1020.5 hPa SW 1.6 km/h 4.8 km/h 80% 0.0 mm CLR
11:00 12.9 °C 9.6 °C 1020.9 hPa SSW 3.2 km/h 8.0 km/h 80% 0.0 mm CLR
11:10 13.2 °C 9.4 °C 1020.5 hPa Calm   8.0 km/h 78% 0.0 mm CLR
11:20 13.3 °C 9.3 °C 1020.9 hPa SW 3.2 km/h 11.3 km/h 77% 0.0 mm CLR
11:30 13.5 °C 9.3 °C 1020.5 hPa SSW 1.6 km/h 8.0 km/h 76% 0.0 mm CLR
11:40 13.6 °C 9.2 °C 1020.5 hPa SSW 3.2 km/h 4.8 km/h 75% 0.0 mm CLR
11:50 13.4 °C 9.3 °C 1020.9 hPa South 3.2 km/h 9.7 km/h 76% 0.0 mm CLR
12:00 13.4 °C 9.1 °C 1020.9 hPa South 3.2 km/h 8.0 km/h 75% 0.0 mm CLR
12:10 13.4 °C 9.2 °C 1020.5 hPa South 1.6 km/h 9.7 km/h 76% 0.0 mm CLR
12:20 13.3 °C 9.1 °C 1020.5 hPa South 1.6 km/h 8.0 km/h 76% 0.0 mm CLR
12:30 13.1 °C 9.2 °C 1020.5 hPa SSE 3.2 km/h 8.0 km/h 77% 0.0 mm CLR
12:40 13.0 °C 9.3 °C 1020.9 hPa South 3.2 km/h 4.8 km/h 78% 0.0 mm CLR
12:50 12.8 °C 9.1 °C 1020.5 hPa South 1.6 km/h 3.2 km/h 78% 0.0 mm CLR
13:00 12.7 °C 8.9 °C 1020.2 hPa South 1.6 km/h 3.2 km/h 78% 0.0 mm CLR
13:10 12.6 °C 9.1 °C 1020.2 hPa South 1.6 km/h 3.2 km/h 79% 0.0 mm CLR
13:20 12.7 °C 9.1 °C 1020.2 hPa South 1.6 km/h 4.8 km/h 79% 0.0 mm CLR
13:30 12.8 °C 9.4 °C 1020.2 hPa South 1.6 km/h 3.2 km/h 80% 0.0 mm CLR
13:40 12.8 °C 9.3 °C 1019.9 hPa South 1.6 km/h 3.2 km/h 79% 0.0 mm CLR
13:50 13.0 °C 9.4 °C 1019.9 hPa South 1.6 km/h 4.8 km/h 79% 0.0 mm CLR
14:00 13.1 °C 9.3 °C 1019.5 hPa SSW 1.6 km/h 3.2 km/h 78% 0.0 mm CLR
Sandhurst Weather
Compliments of Weather Underground - 1.25 mb

Contact Us | Back to Top
Powered by Weather Display v10.37S build 57

Never base important decisions on this or any weather information obtained from the Internet.
Weather data on this site is not quality controlled and continuity of service is not guaranteed.


xhtml  css